Time,TemperatureF,DewpointF,PressureIn,WindDirection,WindDirectionDegrees,WindSpeedMPH,WindSpeedGustMPH,Humidity,HourlyPrecipIn,Conditions,Clouds,dailyrainin,SoftwareType,DateUTC
2013-01-21 00:03:00,18.0,18.0,30.38,North,0,0.0,-999.0,100,-99.99,,,-99.99,,2013-01-21 06:03:00,
2013-01-21 00:12:00,18.0,18.0,30.38,North,0,0.0,-999.0,100,-99.99,,,-99.99,,2013-01-21 06:12:00,
2013-01-21 00:23:00,18.0,18.0,30.37,North,0,0.0,-999.0,100,-99.99,,,-99.99,,2013-01-21 06:23:00,
2013-01-21 00:33:00,16.0,16.0,30.36,North,0,0.0,-999.0,100,-99.99,,,-99.99,,2013-01-21 06:33:00,
2013-01-21 00:43:00,16.0,16.0,30.36,North,0,0.0,-999.0,100,-99.99,,,-99.99,,2013-01-21 06:43:00,
2013-01-21 00:53:00,18.0,18.0,30.36,North,0,0.0,-999.0,100,-99.99,,,-99.99,,2013-01-21 06:53:00,
2013-01-21 01:03:00,18.0,18.0,30.36,North,0,0.0,-999.0,100,-99.99,,,-99.99,,2013-01-21 07:03:00,
2013-01-21 01:13:00,18.0,18.0,30.36,North,0,0.0,-999.0,100,-99.99,,,-99.99,,2013-01-21 07:13:00,
2013-01-21 01:22:00,18.0,18.0,30.34,North,0,0.0,-999.0,100,-99.99,,,-99.99,,2013-01-21 07:22:00,
2013-01-21 01:33:00,18.0,18.0,30.34,North,0,0.0,-999.0,100,-99.99,,,-99.99,,2013-01-21 07:33:00,
2013-01-21 01:42:00,18.0,18.0,30.34,North,0,0.0,-999.0,100,-99.99,,,-99.99,,2013-01-21 07:42:00,
2013-01-21 01:53:00,16.0,16.0,30.33,North,0,0.0,-999.0,100,-99.99,,,-99.99,,2013-01-21 07:53:00,
2013-01-21 02:03:00,16.0,16.0,30.33,North,0,0.0,-999.0,100,-99.99,,,-99.99,,2013-01-21 08:03:00,
2013-01-21 02:13:00,16.0,16.0,30.33,North,0,0.0,-999.0,100,-99.99,,,-99.99,,2013-01-21 08:13:00,
2013-01-21 02:22:00,16.0,16.0,30.32,North,0,0.0,-999.0,100,-99.99,,,-99.99,,2013-01-21 08:22:00,
2013-01-21 02:32:00,16.0,16.0,30.32,North,0,0.0,-999.0,100,-99.99,,,-99.99,,2013-01-21 08:32:00,
2013-01-21 02:43:00,16.0,16.0,30.32,North,0,0.0,-999.0,100,-99.99,,,-99.99,,2013-01-21 08:43:00,
2013-01-21 02:53:00,16.0,16.0,30.32,North,0,0.0,-999.0,100,-99.99,,,-99.99,,2013-01-21 08:53:00,
2013-01-21 03:02:00,16.0,16.0,30.32,North,0,0.0,-999.0,100,-99.99,,,-99.99,,2013-01-21 09:02:00,
2013-01-21 03:12:00,16.0,16.0,30.32,North,0,0.0,-999.0,100,-99.99,,,-99.99,,2013-01-21 09:12:00,
2013-01-21 03:22:00,16.0,16.0,30.32,WSW,240,5.0,-999.0,100,-99.99,,,-99.99,,2013-01-21 09:22:00,
2013-01-21 03:33:00,16.0,16.0,30.32,North,0,0.0,-999.0,100,-99.99,,,-99.99,,2013-01-21 09:33:00,
2013-01-21 03:43:00,16.0,16.0,30.32,North,0,0.0,-999.0,100,-99.99,,,-99.99,,2013-01-21 09:43:00,
2013-01-21 03:53:00,16.0,16.0,30.32,SSW,210,7.0,-999.0,100,-99.99,,,-99.99,,2013-01-21 09:53:00,
2013-01-21 04:02:00,16.0,16.0,30.32,SSW,210,7.0,-999.0,100,-99.99,,,-99.99,,2013-01-21 10:02:00,
2013-01-21 04:12:00,16.0,16.0,30.32,SSW,210,7.0,-999.0,100,-99.99,,,-99.99,,2013-01-21 10:12:00,
2013-01-21 04:22:00,16.0,16.0,30.31,SW,230,6.0,-999.0,100,-99.99,,,-99.99,,2013-01-21 10:22:00,
2013-01-21 04:32:00,16.0,16.0,30.31,SW,220,7.0,-999.0,100,-99.99,,,-99.99,,2013-01-21 10:32:00,
2013-01-21 04:43:00,16.0,16.0,30.31,SW,220,7.0,-999.0,100,-99.99,,,-99.99,,2013-01-21 10:43:00,
2013-01-21 04:53:00,16.0,16.0,30.31,SW,220,7.0,-999.0,100,-99.99,,,-99.99,,2013-01-21 10:53:00,
2013-01-21 05:02:00,16.0,16.0,30.31,SW,220,7.0,-999.0,100,-99.99,,,-99.99,,2013-01-21 11:02:00,
2013-01-21 05:13:00,16.0,16.0,30.31,SW,220,7.0,-999.0,100,-99.99,,,-99.99,,2013-01-21 11:13:00,
2013-01-21 05:23:00,16.0,16.0,30.31,SW,220,5.0,-999.0,100,-99.99,,,-99.99,,2013-01-21 11:23:00,
2013-01-21 05:33:00,16.0,16.0,30.31,SW,220,5.0,-999.0,100,-99.99,,,-99.99,,2013-01-21 11:33:00,
2013-01-21 05:43:00,16.0,16.0,30.31,SW,220,5.0,-999.0,100,-99.99,,,-99.99,,2013-01-21 11:43:00,
2013-01-21 05:53:00,16.0,16.0,30.31,SW,230,3.0,-999.0,100,-99.99,,,-99.99,,2013-01-21 11:53:00,
2013-01-21 06:02:00,16.0,16.0,30.31,SW,230,3.0,-999.0,100,-99.99,,,-99.99,,2013-01-21 12:02:00,
2013-01-21 06:12:00,16.0,16.0,30.31,SW,230,3.0,-999.0,100,-99.99,,,-99.99,,2013-01-21 12:12:00,
2013-01-21 06:22:00,18.0,18.0,30.29,SW,220,5.0,-999.0,100,-99.99,,,-99.99,,2013-01-21 12:22:00,
2013-01-21 06:32:00,16.0,16.0,30.29,North,0,0.0,-999.0,100,-99.99,,,-99.99,,2013-01-21 12:32:00,
2013-01-21 06:43:00,16.0,16.0,30.29,North,0,0.0,-999.0,100,-99.99,,,-99.99,,2013-01-21 12:43:00,
2013-01-21 06:53:00,16.0,16.0,30.29,North,0,0.0,-999.0,100,-99.99,,,-99.99,,2013-01-21 12:53:00,
2013-01-21 07:02:00,16.0,16.0,30.29,North,0,0.0,-999.0,100,-99.99,,,-99.99,,2013-01-21 13:02:00,
2013-01-21 07:12:00,16.0,16.0,30.29,North,0,0.0,-999.0,100,-99.99,,,-99.99,,2013-01-21 13:12:00,
2013-01-21 07:23:00,16.0,16.0,30.29,South,180,3.0,-999.0,100,-99.99,,,-99.99,,2013-01-21 13:23:00,
2013-01-21 07:33:00,16.0,16.0,30.29,South,180,3.0,-999.0,100,-99.99,,,-99.99,,2013-01-21 13:33:00,
2013-01-21 07:43:00,16.0,16.0,30.29,South,180,3.0,-999.0,100,-99.99,,,-99.99,,2013-01-21 13:43:00,
2013-01-21 07:54:00,16.0,16.0,30.29,South,180,3.0,-999.0,100,-99.99,,,-99.99,,2013-01-21 13:54:00,
2013-01-21 08:03:00,16.0,16.0,30.29,South,180,3.0,-999.0,100,-99.99,,,-99.99,,2013-01-21 14:03:00,
2013-01-21 08:23:00,16.0,16.0,30.29,North,0,0.0,-999.0,100,-99.99,,,-99.99,,2013-01-21 14:23:00,
2013-01-21 08:33:00,18.0,18.0,30.29,North,0,0.0,-999.0,100,-99.99,,,-99.99,,2013-01-21 14:33:00,
2013-01-21 08:43:00,18.0,18.0,30.29,North,0,0.0,-999.0,100,-99.99,,,-99.99,,2013-01-21 14:43:00,
2013-01-21 08:53:00,18.0,18.0,30.29,North,0,0.0,-999.0,100,-99.99,,,-99.99,,2013-01-21 14:53:00,
2013-01-21 09:03:00,18.0,18.0,30.29,North,0,0.0,-999.0,100,-99.99,,,-99.99,,2013-01-21 15:03:00,
2013-01-21 09:13:00,18.0,18.0,30.29,North,0,0.0,-999.0,100,-99.99,,,-99.99,,2013-01-21 15:13:00,
2013-01-21 09:23:00,21.0,21.0,30.28,South,180,6.0,-999.0,100,-99.99,,,-99.99,,2013-01-21 15:23:00,
2013-01-21 09:33:00,21.0,21.0,30.28,South,170,3.0,-999.0,100,-99.99,,,-99.99,,2013-01-21 15:33:00,
2013-01-21 09:43:00,21.0,21.0,30.28,South,170,3.0,-999.0,100,-99.99,,,-99.99,,2013-01-21 15:43:00,
2013-01-21 09:53:00,21.0,21.0,30.28,South,170,3.0,-999.0,100,-99.99,,,-99.99,,2013-01-21 15:53:00,
2013-01-21 10:03:00,21.0,21.0,30.28,South,170,3.0,-999.0,100,-99.99,,,-99.99,,2013-01-21 16:03:00,
2013-01-21 10:12:00,21.0,21.0,30.28,South,170,3.0,-999.0,100,-99.99,,,-99.99,,2013-01-21 16:12:00,
2013-01-21 10:23:00,27.0,27.0,30.26,SSW,200,9.0,-999.0,100,-99.99,,,-99.99,,2013-01-21 16:23:00,
2013-01-21 10:33:00,27.0,27.0,30.27,SSW,210,6.0,-999.0,100,-99.99,,,-99.99,,2013-01-21 16:33:00,
2013-01-21 10:43:00,27.0,27.0,30.27,SSW,210,6.0,-999.0,100,-99.99,,,-99.99,,2013-01-21 16:43:00,
2013-01-21 10:53:00,27.0,27.0,30.27,SSW,210,6.0,-999.0,100,-99.99,,,-99.99,,2013-01-21 16:53:00,
2013-01-21 11:02:00,27.0,27.0,30.27,SSW,210,6.0,-999.0,100,-99.99,,,-99.99,,2013-01-21 17:02:00,
2013-01-21 11:12:00,27.0,27.0,30.27,SSW,210,6.0,-999.0,100,-99.99,,,-99.99,,2013-01-21 17:12:00,
2013-01-21 11:22:00,28.0,28.0,30.29,North,0,0.0,-999.0,100,-99.99,,,-99.99,,2013-01-21 17:22:00,
2013-01-21 11:33:00,28.0,28.0,30.29,North,0,0.0,-999.0,100,-99.99,,,-99.99,,2013-01-21 17:33:00,
2013-01-21 11:43:00,28.0,28.0,30.29,North,0,0.0,-999.0,100,-99.99,,,-99.99,,2013-01-21 17:43:00,
2013-01-21 11:53:00,28.0,28.0,30.29,North,0,0.0,-999.0,100,-99.99,,,-99.99,,2013-01-21 17:53:00,
2013-01-21 12:03:00,28.0,28.0,30.29,North,0,0.0,-999.0,100,-99.99,,,-99.99,,2013-01-21 18:03:00,
2013-01-21 12:22:00,32.0,28.0,30.25,South,190,9.0,-999.0,86,-99.99,,,-99.99,,2013-01-21 18:22:00,
2013-01-21 12:23:00,30.0,28.0,30.26,South,190,8.0,-999.0,92,-99.99,,,-99.99,,2013-01-21 18:23:00,
2013-01-21 12:33:00,32.0,28.0,30.25,South,190,9.0,-999.0,86,-99.99,,,-99.99,,2013-01-21 18:33:00,
2013-01-21 12:43:00,32.0,28.0,30.25,South,190,9.0,-999.0,86,-99.99,,,-99.99,,2013-01-21 18:43:00,
2013-01-21 12:53:00,32.0,28.0,30.25,South,190,9.0,-999.0,86,-99.99,,,-99.99,,2013-01-21 18:53:00,
2013-01-21 13:03:00,32.0,28.0,30.25,South,190,9.0,-999.0,86,-99.99,,,-99.99,,2013-01-21 19:03:00,
2013-01-21 13:12:00,32.0,28.0,30.25,South,190,9.0,-999.0,86,-99.99,,,-99.99,,2013-01-21 19:12:00,
2013-01-21 13:53:00,34.0,30.0,30.21,North,0,0.0,-999.0,86,-99.99,,,-99.99,,2013-01-21 19:53:00,
2013-01-21 14:03:00,34.0,30.0,30.21,North,0,0.0,-999.0,86,-99.99,,,-99.99,,2013-01-21 20:03:00,
2013-01-21 14:12:00,34.0,30.0,30.21,North,0,0.0,-999.0,86,-99.99,,,-99.99,,2013-01-21 20:12:00,
2013-01-21 14:23:00,34.0,30.0,30.20,North,0,0.0,-999.0,86,-99.99,,,-99.99,,2013-01-21 20:23:00,
2013-01-21 14:33:00,36.0,30.0,30.20,NE,40,7.0,-999.0,80,-99.99,,,-99.99,,2013-01-21 20:33:00,
2013-01-21 14:43:00,36.0,30.0,30.20,NE,40,7.0,-999.0,80,-99.99,,,-99.99,,2013-01-21 20:43:00,
2013-01-21 14:53:00,36.0,30.0,30.20,NE,40,7.0,-999.0,80,-99.99,,,-99.99,,2013-01-21 20:53:00,
2013-01-21 15:03:00,36.0,30.0,30.20,NE,40,7.0,-999.0,80,-99.99,,,-99.99,,2013-01-21 21:03:00,
2013-01-21 15:12:00,36.0,30.0,30.20,NE,40,7.0,-999.0,80,-99.99,,,-99.99,,2013-01-21 21:12:00,
2013-01-21 15:22:00,36.0,30.0,30.19,NE,40,10.0,-999.0,80,-99.99,,,-99.99,,2013-01-21 21:22:00,
2013-01-21 15:33:00,36.0,30.0,30.18,NE,40,13.0,-999.0,80,-99.99,,,-99.99,,2013-01-21 21:33:00,
2013-01-21 15:43:00,36.0,30.0,30.18,NE,40,13.0,-999.0,80,-99.99,,,-99.99,,2013-01-21 21:43:00,
2013-01-21 15:54:00,34.0,30.0,30.18,ENE,60,10.0,-999.0,86,-99.99,,,-99.99,,2013-01-21 21:54:00,
2013-01-21 16:03:00,34.0,30.0,30.18,ENE,60,10.0,-999.0,86,-99.99,,,-99.99,,2013-01-21 22:03:00,
2013-01-21 16:12:00,34.0,30.0,30.18,ENE,60,10.0,-999.0,86,-99.99,,,-99.99,,2013-01-21 22:12:00,
2013-01-21 16:23:00,32.0,28.0,30.18,NE,50,12.0,-999.0,86,-99.99,,,-99.99,,2013-01-21 22:23:00,
2013-01-21 16:33:00,30.0,28.0,30.19,ENE,60,9.0,-999.0,92,-99.99,,,-99.99,,2013-01-21 22:33:00,
2013-01-21 16:43:00,30.0,28.0,30.19,ENE,60,9.0,-999.0,92,-99.99,,,-99.99,,2013-01-21 22:43:00,
2013-01-21 16:53:00,30.0,28.0,30.18,ENE,70,10.0,-999.0,92,-99.99,,,-99.99,,2013-01-21 22:53:00,
2013-01-21 17:03:00,30.0,28.0,30.18,ENE,70,10.0,-999.0,92,-99.99,,,-99.99,,2013-01-21 23:03:00,
2013-01-21 17:12:00,30.0,28.0,30.18,ENE,70,10.0,-999.0,92,-99.99,,,-99.99,,2013-01-21 23:12:00,
2013-01-21 17:22:00,28.0,27.0,30.18,ENE,60,9.0,-999.0,92,-99.99,,,-99.99,,2013-01-21 23:22:00,
2013-01-21 17:33:00,28.0,27.0,30.18,ENE,70,9.0,-999.0,92,-99.99,,,-99.99,,2013-01-21 23:33:00,
2013-01-21 17:43:00,28.0,27.0,30.18,ENE,70,9.0,-999.0,92,-99.99,,,-99.99,,2013-01-21 23:43:00,
2013-01-21 17:53:00,28.0,27.0,30.18,ENE,70,9.0,-999.0,92,-99.99,,,-99.99,,2013-01-21 23:53:00,
2013-01-21 18:02:00,28.0,27.0,30.18,ENE,70,9.0,-999.0,92,-99.99,,,-99.99,,2013-01-22 00:02:00,
2013-01-21 18:12:00,28.0,27.0,30.18,ENE,70,9.0,-999.0,92,-99.99,,,-99.99,,2013-01-22 00:12:00,
2013-01-21 18:22:00,25.0,25.0,30.18,East,80,9.0,-999.0,100,-99.99,,,-99.99,,2013-01-22 00:22:00,
2013-01-21 18:33:00,25.0,25.0,30.18,East,80,9.0,-999.0,100,-99.99,,,-99.99,,2013-01-22 00:33:00,
2013-01-21 18:43:00,25.0,25.0,30.18,East,80,9.0,-999.0,100,-99.99,,,-99.99,,2013-01-22 00:43:00,
2013-01-21 18:53:00,25.0,25.0,30.18,East,80,9.0,-999.0,100,-99.99,,,-99.99,,2013-01-22 00:53:00,
2013-01-21 19:02:00,25.0,25.0,30.18,East,80,9.0,-999.0,100,-99.99,,,-99.99,,2013-01-22 01:02:00,
2013-01-21 19:23:00,23.0,23.0,30.19,NE,50,9.0,-999.0,100,-99.99,,,-99.99,,2013-01-22 01:23:00,
2013-01-21 19:33:00,23.0,23.0,30.19,NE,50,9.0,-999.0,100,-99.99,,,-99.99,,2013-01-22 01:33:00,
2013-01-21 19:43:00,23.0,23.0,30.19,NE,50,9.0,-999.0,100,-99.99,,,-99.99,,2013-01-22 01:43:00,
2013-01-21 19:52:00,23.0,23.0,30.19,NE,50,9.0,-999.0,100,-99.99,,,-99.99,,2013-01-22 01:52:00,
2013-01-21 20:02:00,23.0,23.0,30.19,NE,50,9.0,-999.0,100,-99.99,,,-99.99,,2013-01-22 02:02:00,
2013-01-21 20:23:00,19.0,19.0,30.19,ENE,60,9.0,-999.0,100,-99.99,,,-99.99,,2013-01-22 02:23:00,
2013-01-21 20:33:00,19.0,19.0,30.19,ENE,60,9.0,-999.0,100,-99.99,,,-99.99,,2013-01-22 02:33:00,
2013-01-21 20:43:00,19.0,19.0,30.19,ENE,60,9.0,-999.0,100,-99.99,,,-99.99,,2013-01-22 02:43:00,
2013-01-21 20:53:00,19.0,19.0,30.20,ENE,70,7.0,-999.0,100,-99.99,,,-99.99,,2013-01-22 02:53:00,
2013-01-21 21:02:00,19.0,19.0,30.20,ENE,70,7.0,-999.0,100,-99.99,,,-99.99,,2013-01-22 03:02:00,
2013-01-21 21:12:00,19.0,19.0,30.20,ENE,70,7.0,-999.0,100,-99.99,,,-99.99,,2013-01-22 03:12:00,
2013-01-21 21:22:00,19.0,19.0,30.21,East,80,8.0,-999.0,100,-99.99,,,-99.99,,2013-01-22 03:22:00,
2013-01-21 21:32:00,19.0,19.0,30.20,East,90,13.0,-999.0,100,-99.99,,,-99.99,,2013-01-22 03:32:00,
2013-01-21 21:42:00,19.0,19.0,30.20,East,90,13.0,-999.0,100,-99.99,,,-99.99,,2013-01-22 03:42:00,
2013-01-21 21:53:00,19.0,19.0,30.20,East,90,13.0,-999.0,100,-99.99,,,-99.99,,2013-01-22 03:53:00,
2013-01-21 22:02:00,19.0,19.0,30.20,East,90,13.0,-999.0,100,-99.99,,,-99.99,,2013-01-22 04:02:00,
2013-01-21 22:12:00,19.0,19.0,30.20,East,90,13.0,-999.0,100,-99.99,,,-99.99,,2013-01-22 04:12:00,
2013-01-21 22:22:00,19.0,18.0,30.20,East,100,10.0,-999.0,92,-99.99,,,-99.99,,2013-01-22 04:22:00,
2013-01-21 22:33:00,19.0,18.0,30.20,East,100,10.0,-999.0,92,-99.99,,,-99.99,,2013-01-22 04:33:00,
2013-01-21 22:42:00,19.0,18.0,30.20,East,100,10.0,-999.0,92,-99.99,,,-99.99,,2013-01-22 04:42:00,
2013-01-21 22:52:00,19.0,18.0,30.20,East,100,10.0,-999.0,92,-99.99,,,-99.99,,2013-01-22 04:52:00,
2013-01-21 23:03:00,19.0,18.0,30.20,East,100,10.0,-999.0,92,-99.99,,,-99.99,,2013-01-22 05:03:00,
2013-01-21 23:23:00,19.0,18.0,30.19,East,100,12.0,-999.0,92,-99.99,,,-99.99,,2013-01-22 05:23:00,
2013-01-21 23:33:00,19.0,18.0,30.19,East,100,12.0,-999.0,92,-99.99,,,-99.99,,2013-01-22 05:33:00,
2013-01-21 23:43:00,19.0,18.0,30.19,East,100,12.0,-999.0,92,-99.99,,,-99.99,,2013-01-22 05:43:00,
2013-01-21 23:53:00,19.0,18.0,30.19,East,100,12.0,-999.0,92,-99.99,,,-99.99,,2013-01-22 05:53:00,